Tracking 30696 objects as of 15-Jun-2025
HD Live streaming from Space Station
objects crossing your sky now

STARLINK-1156

Track STARLINK-1156 now!
10-day predictions
STARLINK-1156 is classified as:


NORAD ID: 45054
Int'l Code: 2020-006L
Perigee: 553.6 km
Apogee: 555.2 km
Inclination: 53.1 °
Period: 95.6 minutes
Semi major axis: 6925 km
RCS: Unknown
Launch date: January 29, 2020
Source: United States (US)
Launch site: AIR FORCE EASTERN TEST RANGE (AFETR)
Your satellite tracking list
Your tracking list is empty




NASA's NSSDC Master Catalog

Two Line Element Set (TLE):
1 45054U 20006L   25165.95647539 -.00006355  00000-0 -40832-3 0  9994
2 45054  53.0546  48.5173 0001173  97.3629 262.7494 15.06384355296101
Source of the keplerian elements: AFSPC